Location: Waco, TX
(31.5480°N, 97.1670°W)
Time: 14:31:39
(UTC-05:00)

ISS - Pass Details

Date: 19 June 2018
Orbit: 402 x 408 km, 51.6° (Epoch: 26 June)

Event Time Altitude Azimuth Distance (km) Brightness Sun altitude
Rises 17:04:11 0° 327° (NNW) 2,324 0.4 42.3°
Reaches altitude 10° 17:06:33 10° 342° (NNW) 1,460 -0.7 41.8°
Maximum altitude 17:09:15 23° 38° (NE) 908 -2.1 41.2°
Drops below altitude 10° 17:11:55 10° 93° (E) 1,452 -1.4 40.7°
Sets 17:14:16 0° 109° (ESE) 2,307 -0.4 40.2°
